Flag for Germany Weather past 2 weeks in Stade, Lower Saxony, Germany

Now
64 °F

Sunny.


Feels Like: 64 °F
Forecast: 52 / 72 °F
Wind: 7 mph from North

Location: Hamburg-Finkenwerder

Current Time: Aug 1, 2015 at 12:35:14 PM

Latest Report: Aug 1, 2015 at 12:20 PM


Visibility: 10 mi

Pressure: 30.07 "Hg

Humidity: 56%

Dew point: 48 °F

Location of StadeLocation

Historic Weather in Stade — Graph

°F

Stade temperature yesterday

Maximum temperature yesterday: 63 °F (at 3:20 PM)
Minimum temperature yesterday: 54 °F (at 5:50 AM)
Average temperature yesterday: 58 °F

Past Weeks' High & Low Weather Summary

 TemperatureHumidityPressure
High88 °F (Jul 17, 4:20 PM)100% (Jul 18, 7:50 AM)30.09 "Hg (Jul 18, 7:50 AM)
Low52 °F (Aug 1, 7:20 AM)41% (Jul 24, 4:20 PM)29.45 "Hg (Jul 27, 2:50 PM)
Average64 °F74%29.81 "Hg
* Reported Jul 17 11:20 AM — Aug 1 11:20 AM, Stade, Weather by CustomWeather, © 2015

Note: Actual official high and low records may vary slightly from our data, if they occured in-between our weather recording intervals... More about our weather records

Advertising

Stade weather history for previous 24 hours

 ConditionsComfort  
Time TempWeatherWind HumidityBarometerVisibility
11:20 AM
Sat, Aug 1
63 °FPassing clouds.8 mph64%30.07 "HgN/A
10:50 AM61 °FPassing clouds.7 mph59%30.07 "HgN/A
10:20 AM61 °FPassing clouds.8 mph63%30.07 "HgN/A
9:50 AM59 °FPassing clouds.7 mph63%30.07 "HgN/A
9:20 AM57 °FPassing clouds.6 mph72%30.07 "HgN/A
8:50 AM55 °FPassing clouds.6 mph77%30.07 "HgN/A
8:20 AM54 °FSunny.3 mph82%30.07 "Hg10 mi
7:50 AM52 °FSunny.3 mph88%30.07 "Hg10 mi
7:20 AM52 °FPassing clouds.5 mph88%30.07 "HgN/A
8:20 PM
Fri, Jul 31
59 °FPassing clouds.8 mph59%30.07 "HgN/A
7:50 PM61 °FPassing clouds.9 mph55%30.07 "HgN/A
7:20 PM61 °FPassing clouds.12 mph55%30.07 "HgN/A
6:50 PM61 °FPassing clouds.12 mph55%30.07 "HgN/A
6:20 PM63 °FScattered clouds.12 mph52%30.07 "HgN/A
5:50 PM63 °FScattered clouds.13 mph56%30.07 "HgN/A
5:20 PM63 °FSunny.13 mph52%30.07 "Hg10 mi
4:50 PM63 °FScattered clouds.16 mph52%30.07 "HgN/A
4:20 PM63 °FScattered clouds.14 mph56%30.07 "HgN/A
3:50 PM63 °FScattered clouds.15 mph52%30.07 "HgN/A
3:20 PM63 °FScattered clouds.15 mph52%30.07 "HgN/A
2:50 PM61 °FScattered clouds.14 mph55%30.07 "HgN/A
2:20 PM59 °FBroken clouds.12 mph68%30.09 "HgN/A
1:50 PM59 °FBroken clouds.12 mph68%30.09 "HgN/A
1:20 PM59 °FPartly sunny.10 mph68%30.07 "HgN/A
12:50 PM57 °FBroken clouds.14 mph77%30.07 "HgN/A
12:20 PM57 °FPartly sunny.6 mph77%30.07 "HgN/A
Weather by CustomWeather, © 2015

See weather overviewHow to use our weather pages